2024-247Y (62399 NORAD) Tracking and Keplerian Element Data

This shows tracking and keplerian element data for the satellite.

Feedback or suggestion? Click here.




ElementValue
Catalog62399
Name2024-247Y
Epoch Orbit681
Epoch Day34.29191712
Epoch Year2025
RAAN124.4074
Inclination44.9943
Eccentricity0.0003559
Argument of Perigee254.779
Mean Anonmoly105.2697
Mean Motion15.21268165
Decay Rate0.00023318
L11 62399U 24247Y 25034.29191712 .00023318 00000+0 10337-2 0 9996
L22 62399 44.9943 124.4074 0003559 254.7790 105.2697 15.21268165 6814



Live tracking and technical data element details for 2024-247Y (NORAD 62399). 2024-247Y can be tracked NOW for your location showing map with azimuth and elevation plus other details from your city location.







IsCatalogInMostPopularTable: catalog: 62399, numindb: 8
Update: records affected: 1



GetName: 62399 2024-247Y

Hit Count: updated at: Mon, 19 May 2025 03:11:42 GMT